When you browse on this site, cookies collect data to enhance your experience and personalize the content and advertising you see.
Visit our Privacy Policy to learn more. By continuing to use the site, you agree to this use of cookies and data.
  • In Latvia
  • List of Countries
  • For 7 days
  • Water Temperature
  • Satellite Maps
  • Weather Map
  • Weather Widgets
  • user-avatar
    Login

    Hourly Weather Thimphu

    Today, 23 January, Wednesday

    Time Temperature Precipitation Wind Pressure Humidity
    00:00 -1°C° 0 mm 1 mps 521 mmHg 77%
    01:00 -1°C° 0 mm 1 mps 521 mmHg 75%
    02:00 -1°C° 0 mm 1 mps 521 mmHg 72%
    03:00 -2°C° 0 mm 1 mps 521 mmHg 70%
    04:00 -2°C° 0 mm 1 mps 521 mmHg 67%
    05:00 -2°C° 0 mm 1 mps 521 mmHg 64%
    06:00 -1°C° 0 mm 1 mps 521 mmHg 64%
    07:00 +1°C° 0.1 mm 1 mps 522 mmHg 58%
    08:00 +3°C° 0.1 mm 1 mps 524 mmHg 52%
    09:00 +4°C° 0.1 mm 1 mps 525 mmHg 45%
    10:00 +5°C° 0.2 mm 1 mps 525 mmHg 46%
    11:00 +6°C° 0.2 mm 1 mps 525 mmHg 47%
    12:00 +6°C° 0 mm 2 mps 525 mmHg 48%
    13:00 +5°C° 0.4 mm 2 mps 525 mmHg 53%
    14:00 +5°C° 0.4 mm 2 mps 524 mmHg 57%
    15:00 +4°C° 0.4 mm 2 mps 523 mmHg 62%
    16:00 +3°C° 0.5 mm 2 mps 522 mmHg 69%
    17:00 +2°C° 0.5 mm 2 mps 522 mmHg 76%
    18:00 +2°C° 0 mm 1 mps 521 mmHg 84%
    19:00 +2°C° 0.3 mm 1 mps 522 mmHg 83%
    20:00 +1°C° 0.3 mm 1 mps 522 mmHg 83%
    21:00 +1°C° 0.3 mm 1 mps 522 mmHg 83%
    22:00 +1°C° 0.2 mm 1 mps 522 mmHg 83%
    23:00 0°C° 0.2 mm 1 mps 522 mmHg 83%

    Tomorrow, 24 January, Thursday

    Time Temperature Precipitation Wind Pressure Humidity
    00:00 0°C° 0.2 mm 1 mps 522 mmHg 83%
    01:00 0°C° 0.2 mm 1 mps 522 mmHg 82%
    02:00 0°C° 0.2 mm 1 mps 522 mmHg 82%
    03:00 0°C° 0.2 mm 1 mps 522 mmHg 81%
    04:00 -1°C° 0.1 mm 1 mps 522 mmHg 81%
    05:00 -1°C° 0.1 mm 1 mps 522 mmHg 81%
    06:00 -2°C° 0.1 mm 1 mps 521 mmHg 81%
    07:00 0°C° 0 mm 1 mps 523 mmHg 73%
    08:00 +2°C° 0 mm 1 mps 524 mmHg 64%
    09:00 +5°C° 0 mm 1 mps 526 mmHg 56%
    10:00 +6°C° 0 mm 1 mps 526 mmHg 52%
    11:00 +6°C° 0 mm 2 mps 527 mmHg 48%
    12:00 +8°C° 0 mm 2 mps 527 mmHg 44%
    13:00 +7°C° 0 mm 2 mps 527 mmHg 45%
    14:00 +7°C° 0 mm 2 mps 526 mmHg 46%
    15:00 +7°C° 0 mm 2 mps 526 mmHg 46%
    16:00 +4°C° 0 mm 2 mps 524 mmHg 58%
    17:00 +1°C° 0 mm 2 mps 523 mmHg 69%
    18:00 0°C° 0 mm 1 mps 521 mmHg 81%
    19:00 -1°C° 0 mm 1 mps 522 mmHg 76%
    20:00 -3°C° 0 mm 2 mps 522 mmHg 71%
    21:00 -4°C° 0 mm 2 mps 522 mmHg 66%
    22:00 -4°C° 0 mm 2 mps 522 mmHg 62%
    23:00 -4°C° 0 mm 2 mps 522 mmHg 59%

    Day after tomorrow, 25 January, Friday

    Time Temperature Precipitation Wind Pressure Humidity
    00:00 -5°C° 0 mm 2 mps 522 mmHg 56%
    01:00 -5°C° 0 mm 2 mps 521 mmHg 55%
    02:00 -5°C° 0 mm 2 mps 521 mmHg 54%
    03:00 -5°C° 0 mm 2 mps 521 mmHg 53%
    04:00 -5°C° 0 mm 2 mps 521 mmHg 52%
    05:00 -5°C° 0 mm 2 mps 521 mmHg 52%
    06:00 -5°C° 0 mm 2 mps 521 mmHg 51%
    07:00 -1°C° 0 mm 1 mps 522 mmHg 46%
    08:00 +1°C° 0 mm 1 mps 524 mmHg 41%
    09:00 +4°C° 0 mm 1 mps 526 mmHg 36%
    10:00 +4°C° 0.1 mm 1 mps 526 mmHg 39%
    11:00 +5°C° 0.1 mm 1 mps 526 mmHg 43%
    12:00 +6°C° 0.1 mm 1 mps 526 mmHg 46%
    13:00 +5°C° 0.5 mm 1 mps 525 mmHg 52%
    14:00 +4°C° 0.5 mm 1 mps 524 mmHg 58%
    15:00 +3°C° 0.5 mm 1 mps 523 mmHg 65%
    16:00 +2°C° 0.4 mm 1 mps 523 mmHg 70%
    17:00 +1°C° 0.4 mm 1 mps 522 mmHg 76%
    18:00 0°C° 0.4 mm 1 mps 522 mmHg 82%
    19:00 0°C° 0.4 mm 1 mps 522 mmHg 82%
    20:00 0°C° 0.4 mm 1 mps 522 mmHg 82%
    21:00 0°C° 0.4 mm 1 mps 523 mmHg 82%
    22:00 0°C° 0.6 mm 1 mps 522 mmHg 83%
    23:00 0°C° 0.6 mm 1 mps 522 mmHg 83%

    26 January, Saturday

    Time Temperature Precipitation Wind Pressure Humidity
    00:00 0°C° 0.6 mm 1 mps 522 mmHg 84%
    01:00 -1°C° 0.9 mm 1 mps 522 mmHg 85%
    02:00 -1°C° 0.9 mm 1 mps 521 mmHg 86%
    03:00 -1°C° 0.9 mm 1 mps 521 mmHg 87%
    04:00 -1°C° 1.5 mm 1 mps 521 mmHg 88%
    05:00 -1°C° 1.5 mm 1 mps 520 mmHg 89%
    06:00 -1°C° 1.5 mm 1 mps 520 mmHg 90%
    07:00 -1°C° 2.6 mm 1 mps 521 mmHg 90%
    08:00 -1°C° 2.6 mm 1 mps 522 mmHg 90%
    09:00 0°C° 2.6 mm 1 mps 522 mmHg 90%
    10:00 0°C° 1.9 mm 1 mps 522 mmHg 90%
    11:00 0°C° 1.9 mm 1 mps 522 mmHg 90%
    12:00 +1°C° 1.9 mm 1 mps 523 mmHg 90%
    13:00 +1°C° 1.2 mm 1 mps 522 mmHg 90%
    14:00 +1°C° 1.2 mm 1 mps 522 mmHg 90%
    15:00 +2°C° 1.2 mm 1 mps 522 mmHg 90%
    16:00 +1°C° 0.7 mm 1 mps 522 mmHg 90%
    17:00 +1°C° 0.7 mm 1 mps 521 mmHg 90%
    18:00 0°C° 0.7 mm 1 mps 521 mmHg 90%
    19:00 -1°C° 0.1 mm 1 mps 521 mmHg 90%
    20:00 -2°C° 0.1 mm 1 mps 522 mmHg 89%
    21:00 -2°C° 0.1 mm 1 mps 522 mmHg 88%
    22:00 -3°C° 0 mm 1 mps 522 mmHg 88%
    23:00 -3°C° 0 mm 1 mps 522 mmHg 87%

    27 January, Sunday

    Time Temperature Precipitation Wind Pressure Humidity
    00:00 -4°C° 0 mm 1 mps 522 mmHg 86%
    01:00 -4°C° 0 mm 1 mps 521 mmHg 84%
    02:00 -6°C° 0 mm 1 mps 520 mmHg 82%
    03:00 -7°C° 0 mm 2 mps 520 mmHg 80%
    04:00 -8°C° 0 mm 2 mps 520 mmHg 79%
    05:00 -8°C° 0 mm 2 mps 520 mmHg 78%
    06:00 -8°C° 0 mm 2 mps 520 mmHg 77%
    07:00 -6°C° 0 mm 2 mps 522 mmHg 76%
    08:00 -2°C° 0 mm 1 mps 523 mmHg 74%
    09:00 +1°C° 0 mm 1 mps 525 mmHg 72%
    10:00 +2°C° 0 mm 1 mps 525 mmHg 74%
    11:00 +3°C° 0 mm 1 mps 525 mmHg 75%
    12:00 +4°C° 0 mm 1 mps 525 mmHg 76%
    13:00 +3°C° 0.1 mm 2 mps 525 mmHg 77%
    14:00 +3°C° 0.1 mm 2 mps 524 mmHg 77%
    15:00 +3°C° 0.1 mm 2 mps 523 mmHg 77%
    16:00 +2°C° 0.1 mm 1 mps 523 mmHg 79%
    17:00 -1°C° 0.1 mm 1 mps 522 mmHg 82%
    18:00 -3°C° 0.1 mm 1 mps 521 mmHg 84%
    19:00 -4°C° 0 mm 1 mps 521 mmHg 82%
    20:00 -4°C° 0 mm 1 mps 521 mmHg 80%
    21:00 -6°C° 0 mm 1 mps 521 mmHg 78%
    22:00 -8°C° 0 mm 2 mps 520 mmHg 77%
    23:00 -8°C° 0 mm 2 mps 520 mmHg 77%

    28 January, Monday

    Time Temperature Precipitation Wind Pressure Humidity
    00:00 -8°C° 0 mm 2 mps 520 mmHg 76%
    01:00 -9°C° 0 mm 2 mps 520 mmHg 76%
    02:00 -9°C° 0 mm 2 mps 519 mmHg 75%
    03:00 -9°C° 0 mm 2 mps 519 mmHg 75%
    04:00 -9°C° 0 mm 2 mps 519 mmHg 74%
    05:00 -9°C° 0 mm 2 mps 519 mmHg 74%
    06:00 -10°C° 0 mm 2 mps 519 mmHg 73%
    07:00 -7°C° 0 mm 2 mps 521 mmHg 70%
    08:00 -2°C° 0 mm 1 mps 523 mmHg 67%
    09:00 0°C° 0 mm 1 mps 524 mmHg 64%
    10:00 +1°C° 0 mm 1 mps 524 mmHg 64%
    11:00 +2°C° 0 mm 1 mps 524 mmHg 64%
    12:00 +4°C° 0 mm 1 mps 524 mmHg 64%
    13:00 +2°C° 0 mm 2 mps 524 mmHg 65%
    14:00 +2°C° 0 mm 2 mps 523 mmHg 66%
    15:00 +2°C° 0 mm 2 mps 522 mmHg 67%
    16:00 -1°C° 0 mm 2 mps 521 mmHg 71%
    17:00 -2°C° 0 mm 1 mps 520 mmHg 75%
    18:00 -4°C° 0 mm 1 mps 519 mmHg 79%
    19:00 -6°C° 0 mm 1 mps 519 mmHg 77%
    20:00 -7°C° 0 mm 1 mps 519 mmHg 75%
    21:00 -9°C° 0 mm 2 mps 519 mmHg 73%
    22:00 -9°C° 0 mm 2 mps 519 mmHg 73%
    23:00 -10°C° 0 mm 2 mps 519 mmHg 73%
    Show more